Dewpoint
64 65 65 64 65 65 67 68 69 69 69 67 66 65 66 66 67 68 70 70 71 70 70 71 71 72 72 73 73 73 73 73 73 74 74 74 73 73 72 72 72 71 71 71 70 70 70 70 70 70 70 73 72 66 68 69 67 66 67 66 66 67 69 70 68 68 67 66 64 62 62 63 63 66 65 65 67 68 69 68 68 67 68 68 72
63 65 64 65 65 65 67 67 67 67 68 69 68 66 65 66 67 68 67 69 71 70 69 70 70 71 71 73 74 74 73 73 73 72 72 73 73 72 71 72 72 72 72 72 71 70 71 71 71 69 69 72 72 69 66 67 71 65 66 66 66 66 68 68 68 67 68 68 65 65 64 65 64 66 68 66 65 68 70 66 66 68 67 68 69
63 65 64 64 63 63 65 65 65 67 67 67 67 67 66 67 68 68 68 68 68 68 69 69 71 71 71 71 72 73 74 72 72 72 73 73 73 71 71 71 71 70 70 71 70 71 72 73 71 69 69 69 68 74 71 70 70 70 67 65 66 66 66 68 68 69 67 66 68 67 67 68 66 67 66 67 70 70 70 68 67 67 66 66 66
63 64 65 63 63 63 63 64 66 67 67 66 67 67 67 67 67 67 68 67 67 68 69 70 70 71 70 70 70 71 73 72 72 72 72 72 72 72 72 71 70 70 69 69 70 71 73 73 72 71 70 69 70 72 71 71 71 71 68 68 68 65 67 66 69 70 68 66 68 67 66 68 69 67 69 70 69 68 70 70 68 68 67 66 66
61 62 62 62 63 64 65 66 66 66 67 66 67 67 67 67 66 66 67 67 68 68 68 69 69 70 68 68 68 69 70 72 73 71 70 71 71 70 70 71 70 70 69 69 70 71 72 73 73 72 71 71 69 67 68 71 70 70 71 72 72 71 68 66 67 69 69 68 67 68 69 70 69 72 73 71 73 73 73 73 69 67 67 65 65
62 62 61 62 63 64 65 65 65 66 66 66 66 67 67 67 67 66 67 67 68 68 68 68 67 67 67 67 67 67 69 70 72 72 71 70 71 71 70 70 69 69 70 69 70 71 70 72 72 71 72 70 69 69 70 70 70 72 73 72 72 72 71 68 68 68 68 69 70 66 70 67 71 73 72 72 71 72 74 73 71 68 68 69 66
64 63 61 62 64 64 64 64 64 65 65 66 66 66 66 66 66 66 66 67 67 66 66 68 67 66 67 66 67 68 68 68 69 71 71 71 71 71 71 70 70 69 71 71 71 70 71 71 71 72 70 69 70 71 73 72 70 71 72 71 71 70 68 70 69 68 69 69 69 69 68 68 70 72 73 73 74 72 72 74 70 70 69 66 67
63 63 63 62 64 62 65 64 64 65 66 66 66 65 65 65 65 66 66 66 65 65 66 65 64 65 66 67 67 68 68 67 68 70 71 70 70 69 70 70 70 70 70 71 72 71 70 71 71 71 71 72 71 70 73 71 71 71 71 72 72 71 69 70 70 68 69 68 67 67 68 68 68 69 71 73 74 74 73 72 70 72 72 72 70
63 62 63 63 63 63 64 64 64 65 65 65 65 65 65 65 65 65 66 65 64 65 66 66 65 66 66 67 67 67 66 66 66 69 70 70 71 70 71 70 70 71 71 70 71 71 71 72 70 71 72 72 73 72 73 72 71 72 72 73 73 72 72 71 71 72 70 69 68 69 68 67 68 70 69 71 71 71 73 72 71 71 72 72 73
63 62 63 62 63 64 64 65 65 65 65 64 65 64 64 64 64 65 66 65 65 66 67 67 66 65 65 65 66 65 65 65 66 69 69 69 70 70 70 70 70 71 71 71 70 71 72 71 71 71 72 71 71 71 72 71 72 72 73 73 71 72 71 72 71 70 70 70 68 68 69 67 68 68 70 70 70 72 70 72 72 71 72 70 73
63 62 62 63 63 64 63 63 64 64 65 64 64 64 64 64 65 65 65 65 66 67 66 66 66 65 65 65 64 64 64 64 67 69 69 70 70 70 70 70 70 70 70 70 70 72 71 71 71 71 71 70 71 70 72 72 72 71 71 71 71 72 71 70 72 74 72 69 68 68 69 68 67 69 68 68 68 69 70 72 72 72 71 70 70
63 63 63 63 63 64 63 64 64 64 64 64 64 64 64 64 64 65 64 65 65 65 66 66 66 66 65 66 66 65 65 65 67 68 69 69 69 69 69 69 69 68 69 69 69 70 71 71 71 70 70 72 72 72 72 72 71 71 71 71 71 71 71 71 70 69 70 70 69 69 68 68 67 68 68 68 68 68 71 71 73 72 73 73 71
63 63 63 63 64 64 64 64 64 63 64 63 63 63 63 63 63 64 64 64 65 66 66 65 65 65 65 66 66 65 64 66 66 67 67 66 67 68 68 68 69 69 68 68 67 68 70 70 72 71 70 71 72 70 72 70 70 69 70 71 71 70 68 68 69 71 71 72 70 69 69 69 69 69 68 69 73 72 73 72 75 74 72 69 70
63 63 63 63 63 63 63 63 63 63 63 63 63 63 63 63 63 63 63 63 64 64 65 65 64 64 64 65 66 66 66 64 66 65 65 65 65 67 68 68 68 68 69 69 69 69 70 70 68 69 70 70 72 72 70 70 70 71 71 71 71 71 71 68 68 69 71 71 71 70 71 71 70 71 72 72 73 72 71 71 74 73 71 71 71
63 63 63 63 63 63 63 64 63 64 64 64 64 63 62 63 63 63 62 62 63 63 63 64 64 64 64 64 64 65 65 65 64 64 63 63 64 67 67 67 67 67 67 69 69 70 70 69 69 69 68 70 73 70 70 70 70 69 69 69 70 70 72 72 71 71 71 71 72 71 71 71 72 72 73 74 72 73 73 72 70 71 73 72 72
62 63 62 62 62 62 62 62 63 64 64 63 62 62 62 63 62 62 62 62 62 63 63 63 63 63 63 64 63 63 64 63 64 63 62 62 64 67 66 67 67 66 67 67 69 70 71 70 71 70 70 71 71 70 70 72 71 70 70 69 69 68 70 71 68 69 72 73 72 72 72 71 70 72 73 73 74 75 74 73 72 72 72 69 70
62 61 61 61 61 61 61 61 61 63 63 61 61 61 61 61 61 62 62 61 61 61 62 62 63 63 63 63 63 63 63 63 62 61 61 62 65 66 67 66 66 66 66 66 67 68 68 69 69 69 70 70 71 66 68 70 70 69 70 70 69 69 70 71 68 66 67 66 66 67 67 66 66 65 65 66 72 74 75 73 70 71 71 69 67
60 60 59 60 61 61 61 62 61 61 61 60 60 60 60 61 61 62 61 61 61 61 62 61 62 63 62 62 63 63 63 63 62 61 60 61 65 66 66 66 65 66 66 66 66 67 68 68 69 69 69 69 69 66 66 71 70 70 70 69 69 70 69 68 69 72 65 65 65 65 65 65 66 66 66 66 67 70 72 70 70 70 70 68 66
58 58 58 59 59 60 61 61 61 61 60 60 60 60 61 61 61 61 61 61 61 62 61 61 61 62 63 63 62 62 62 63 61 61 60 61 65 66 65 65 65 65 65 65 66 66 66 67 67 68 68 69 66 66 65 71 70 70 70 70 68 68 68 68 69 69 72 71 71 71 70 68 70 71 72 69 68 70 72 70 71 71 70 69 68
58 58 58 58 58 59 59 59 60 59 59 60 61 61 62 61 62 62 61 60 60 61 62 61 61 61 62 61 60 62 63 64 64 61 60 60 62 66 64 64 64 64 65 65 65 66 65 66 66 67 64 64 63 62 62 63 69 69 70 69 69 69 70 71 70 69 71 71 71 72 72 72 72 72 72 72 72 72 70 71 70 71 70 71 68
57 57 57 58 58 58 59 59 59 59 59 60 61 61 61 60 60 60 60 60 61 61 61 61 62 63 63 63 63 63 62 64 64 61 59 58 60 64 63 63 64 64 64 64 64 63 64 64 65 68 63 62 59 58 57 58 62 69 69 69 70 72 69 70 70 69 69 71 71 72 70 71 71 72 72 72 72 72 72 71 72 72 72 71 69
56 56 57 57 57 58 58 59 58 58 59 60 59 59 61 60 59 59 59 60 61 61 62 62 60 61 61 61 61 61 62 61 63 61 60 59 59 60 63 63 64 64 64 63 63 63 65 66 66 66 60 59 58 56 54 55 57 65 69 63 61 62 69 69 70 69 69 69 70 71 70 70 69 70 71 72 72 73 73 73 72 73 73 73 71
54 55 55 56 57 57 58 58 58 57 58 60 60 59 59 59 59 59 59 60 60 60 60 60 59 58 58 59 60 60 61 61 61 61 58 55 54 54 56 60 60 63 63 62 63 63 64 66 66 66 59 56 54 55 55 55 60 65 59 58 59 60 64 67 68 69 69 69 70 68 70 69 70 69 69 70 70 73 73 74 74 73 73 74 74
54 55 55 54 55 56 57 58 58 57 58 58 59 59 59 59 58 58 57 58 58 58 57 57 57 56 56 56 57 57 59 59 59 58 58 55 53 52 53 54 56 59 61 61 62 62 64 65 66 57 55 53 53 55 56 59 62 58 57 58 59 61 66 67 67 68 68 69 68 69 69 69 69 70 69 70 70 72 73 74 74 73 72 71 72
53 54 55 54 56 56 56 56 56 56 56 57 57 56 57 58 57 58 57 57 57 57 55 55 55 54 54 54 55 56 57 57 57 57 55 55 54 53 53 54 54 55 61 62 63 64 61 57 56 55 55 54 54 55 57 59 56 56 56 56 61 65 67 67 68 68 68 68 68 67 68 69 69 70 72 72 72 74 75 72 73 74 73 73 71
53 53 53 54 55 56 56 55 56 56 54 56 56 55 56 56 56 57 56 55 56 55 54 53 52 53 53 53 53 54 55 55 55 54 54 54 54 53 53 53 56 57 59 60 60 59 58 57 56 56 57 59 65 66 66 66 65 63 60 61 67 65 66 66 68 68 68 68 68 67 67 69 69 69 71 72 72 72 72 70 71 71 72 71 70
52 53 53 53 55 55 55 53 53 53 54 55 54 54 55 55 56 57 57 55 54 54 52 52 51 50 51 52 52 52 53 53 52 51 51 51 51 53 53 54 55 57 59 61 62 62 63 63 62 60 59 60 61 62 62 63 64 65 65 66 67 65 65 67 68 68 68 68 68 68 67 68 69 71 71 70 70 71 72 70 70 69 70 70 70
50 52 51 52 52 53 52 53 53 52 54 54 53 53 54 54 54 55 56 54 53 52 51 50 49 48 48 49 50 50 50 50 50 49 48 48 48 49 50 52 53 55 56 59 60 60 60 61 62 64 65 65 65 64 65 66 65 65 64 63 64 65 66 67 68 68 68 68 68 68 69 68 67 68 70 69 70 69 70 70 69 69 69 69 69
52 52 51 51 51 52 52 53 53 53 53 54 53 53 54 53 54 55 56 54 53 51 50 49 49 48 47 48 48 48 48 48 48 47 48 45 47 46 48 50 51 52 55 53 54 56 58 61 62 63 63 62 62 62 62 62 63 64 65 65 65 65 66 67 68 69 69 69 67 68 68 67 67 68 68 70 68 68 71 70 69 68 69 68 67
51 51 51 50 50 49 51 50 51 52 51 52 53 53 53 52 54 54 53 52 49 48 48 48 48 47 47 47 49 48 48 48 47 44 42 42 43 43 43 44 45 49 51 48 52 53 57 60 61 60 60 60 60 60 60 59 62 62 62 64 65 65 64 65 64 66 68 68 68 68 67 68 67 69 67 67 69 68 68 67 70 69 68 68 68
48 49 50 49 48 48 48 49 51 52 51 52 52 52 51 53 47 49 52 52 47 43 42 43 45 47 48 46 48 49 48 45 43 42 42 42 42 41 41 42 43 44 46 51 56 57 55 56 57 57 57 58 59 60 61 61 61 62 61 61 63 64 63 64 65 65 65 65 66 67 67 67 67 68 67 67 69 68 68 69 70 70 69 67 68
47 49 49 49 49 50 48 50 51 50 50 51 52 51 51 51 51 48 47 48 47 44 42 41 42 43 44 46 47 47 46 44 42 42 42 42 41 41 41 42 42 43 46 46 55 52 52 51 52 51 52 53 54 55 55 56 57 58 60 61 61 62 63 63 65 66 65 65 66 66 66 67 67 67 68 67 66 67 67 68 69 67 66 67 68
48 49 49 49 48 48 46 49 49 49 49 50 50 51 50 51 49 49 51 44 44 43 42 41 41 41 42 41 41 41 41 41 42 42 41 41 41 41 41 44 42 43 47 50 50 48 48 49 49 49 48 49 49 49 50 51 52 53 55 56 56 57 58 60 63 66 66 64 65 65 65 66 66 66 66 65 65 64 65 65 66 68 68 67 67
49 47 47 49 49 48 47 48 48 47 48 50 49 50 49 50 50 50 48 49 52 48 42 42 41 42 42 41 40 40 41 41 41 41 41 41 41 41 41 51 44 42 45 47 47 46 46 46 47 47 46 47 47 47 48 48 49 49 50 51 52 53 55 57 58 57 58 60 62 63 63 64 66 67 67 66 65 65 65 65 66 66 68 68 68
48 48 48 47 47 47 47 48 47 48 48 49 47 47 48 49 50 49 49 48 48 48 47 47 45 42 46 44 41 40 40 41 41 41 41 41 41 41 43 50 47 47 47 47 47 45 45 45 45 45 45 45 45 46 45 46 46 47 47 48 49 50 51 52 53 55 55 56 58 59 58 60 63 64 67 66 66 65 64 64 65 65 65 66 67
49 48 48 47 47 48 47 49 48 47 47 47 46 45 46 47 47 47 47 47 47 47 46 46 47 47 45 42 42 40 40 41 41 41 41 41 41 41 46 45 44 45 46 46 46 45 45 44 45 44 44 44 44 44 44 44 45 45 46 47 47 48 48 49 51 51 52 54 56 57 57 58 58 58 59 62 64 65 66 66 66 65 65 64 64
49 48 48 47 48 48 47 48 48 47 45 46 44 45 45 45 45 45 45 44 46 46 44 46 46 45 46 47 46 42 41 41 41 41 41 41 41 44 44 44 43 44 44 44 45 45 43 43 44 44 43 43 43 43 43 43 44 44 46 46 47 46 47 48 48 50 49 49 51 52 53 54 55 56 57 58 60 62 63 64 64 65 65 64 63
49 47 47 47 49 49 47 46 44 44 45 44 45 45 44 44 45 44 44 44 44 45 43 43 45 43 44 44 46 44 44 43 41 40 41 40 43 43 43 43 44 43 43 43 44 44 43 43 43 43 43 42 43 42 42 42 43 43 43 44 45 45 47 46 48 46 47 46 47 48 50 50 51 52 53 54 56 57 58 60 61 62 63 63 65
49 47 46 45 45 45 44 44 44 43 44 44 43 44 45 43 43 43 42 42 43 43 42 42 42 42 44 43 41 43 43 41 41 40 41 42 42 42 43 42 43 43 43 43 43 43 42 42 43 43 43 42 43 43 42 42 42 42 43 43 43 43 43 42 43 44 45 45 46 47 48 49 49 51 52 53 54 55 56 57 58 58 59 60 61
47 47 47 45 45 44 44 45 43 42 42 43 42 44 44 44 43 44 42 41 42 43 41 40 40 41 44 43 40 40 40 38 39 39 40 41 41 42 42 41 42 42 42 42 42 42 42 42 42 42 43 43 42 42 42 42 41 42 42 42 42 42 41 41 41 41 42 43 44 45 47 48 49 49 50 51 52 53 53 54 55 56 57 57 58
46 47 47 46 45 45 45 43 43 42 43 44 43 43 43 44 43 43 43 42 41 41 40 40 39 41 42 42 42 42 42 38 39 39 39 40 40 40 40 40 40 41 40 41 42 43 43 43 43 42 42 42 42 42 42 41 41 41 41 42 41 42 41 40 41 40 41 42 43 44 45 47 48 49 48 50 52 52 52 53 54 54 55 56 57
46 46 46 45 47 45 44 43 42 43 45 45 43 43 44 43 42 43 43 43 43 42 38 39 40 40 42 42 40 39 39 40 40 38 39 38 38 39 40 40 40 41 40 39 41 43 43 43 42 42 41 42 42 42 42 41 41 41 41 41 41 41 40 39 40 40 39 39 41 42 45 45 47 48 49 51 50 51 52 52 53 53 54 55 56
49 46 46 45 44 43 41 40 43 41 42 42 42 43 43 43 42 42 42 42 41 41 39 39 39 41 41 41 40 42 39 38 39 38 37 38 38 38 38 39 38 39 40 39 39 41 42 41 41 42 43 42 43 43 43 43 44 42 42 41 41 41 40 40 39 39 39 39 39 42 43 44 45 46 47 49 49 50 51 52 53 53 53 53 54
46 45 44 44 43 42 42 41 41 42 41 42 41 42 43 43 41 42 42 41 41 41 39 39 39 39 39 38 38 39 38 38 38 37 38 38 36 37 36 39 39 38 38 39 38 38 38 39 39 40 42 42 42 43 43 43 43 43 43 42 42 42 40 40 39 38 39 38 39 40 40 42 44 44 46 48 49 49 50 51 52 52 53 53 53
45 45 42 40 40 40 40 42 40 41 42 40 40 39 41 40 40 41 41 40 40 40 40 38 39 39 39 38 38 38 39 38 39 37 36 36 36 36 35 37 38 39 37 37 38 39 38 38 39 39 39 38 39 41 42 43 44 43 44 44 41 40 39 38 38 39 39 39 38 38 40 42 42 43 45 46 48 49 49 50 51 51 51 52 52
41 40 38 38 40 41 43 40 41 39 38 39 38 37 38 38 40 41 40 41 41 39 39 38 38 39 39 38 38 39 38 39 38 38 37 36 35 36 35 36 38 38 37 36 38 39 37 39 39 38 38 39 38 38 40 42 43 44 44 43 42 41 40 39 38 38 39 39 38 38 39 42 42 44 47 46 47 48 49 50 50 51 51 51 52
42 42 42 43 42 43 43 44 40 40 39 38 36 37 37 39 39 41 42 42 42 42 40 39 38 38 40 39 38 39 38 38 38 37 38 39 38 37 37 38 39 38 37 38 39 37 38 38 37 38 39 39 39 39 38 38 40 39 41 40 40 39 39 38 37 37 37 37 38 38 39 42 43 44 46 47 47 47 49 49 50 50 50 50 50
44 41 41 43 43 42 43 43 43 44 43 42 42 42 41 40 39 40 40 41 40 40 39 39 39 38 39 38 38 38 39 38 38 39 37 37 36 36 38 38 38 37 38 38 38 37 37 38 38 38 38 38 38 38 38 39 38 39 40 41 40 39 38 37 36 36 37 36 38 40 42 42 44 46 47 47 48 49 49 50 51 51 51 51 51
44 45 43 43 42 43 44 43 44 42 42 43 42 42 42 40 39 39 39 39 39 39 39 39 39 39 39 39 39 38 38 39 38 38 37 36 39 38 38 38 38 37 37 36 37 38 39 38 39 38 38 38 38 38 39 40 39 40 41 41 40 39 38 36 36 35 35 36 38 40 42 44 45 46 47 47 48 48 49 50 51 52 52 52 53
44 45 45 45 43 42 44 43 43 42 43 43 42 43 42 42 40 40 39 39 38 39 38 39 39 39 39 39 40 39 39 38 38 38 39 37 36 37 37 37 38 37 37 37 37 37 38 39 39 39 39 39 39 40 39 39 41 41 41 40 39 38 36 35 35 35 33 35 36 39 42 41 42 43 43 44 45 46 47 49 50 52 52 51 52
45 44 44 44 43 44 43 43 43 43 43 43 42 42 42 43 42 41 40 40 39 39 39 39 39 39 39 39 40 39 39 39 38 38 38 39 38 38 38 38 38 39 39 39 39 38 40 40 39 39 39 40 39 39 40 40 41 41 40 39 38 36 35 33 33 33 33 34 36 40 39 39 41 41 41 41 42 43 45 46 47 47 47 48 50